Simultaneous Nadir Overpasses (SNOs) Predictions

Prediction of SNOs between NOAA-19 and TERRA Satellite Orbit:

Table of predicted SNOs for the next 14.0 days since TLE Epoch: 7/23/2016
Index Date (NOAA-19) Time (NOAA-19) Lat,Lon (NOAA-19) SZA (NOAA-19 ) Date (TERRA) Time (TERRA) Lat,Lon (TERRA) SZA (TERRA ) Distance(km) Time Diff (sec)
1 07/25/2016 02:48:39 -74.04, -34.82 125.53 07/25/2016 02:49:47 -74.03, -34.73 125.54 3.12 68
2 07/25/2016 03:39:42 73.94, 132.67 54.39 07/25/2016 03:39:14 73.94, 132.71 54.38 1.18 28
3 07/27/2016 08:22:44 73.99, 61.83 54.93 07/27/2016 08:23:29 74.02, 61.81 54.95 2.70 45
4 07/27/2016 09:13:40 -73.92,-130.73 125.13 07/27/2016 09:12:59 -73.90,-130.81 125.16 3.24 41
5 07/29/2016 13:56:43 -74.00, 158.37 124.55 07/29/2016 13:57:13 -74.03, 158.40 124.51 3.29 30
6 07/29/2016 14:47:45 73.90, -34.15 55.38 07/29/2016 14:46:40 73.93, -34.16 55.40 3.41 65
7 07/31/2016 19:30:48 74.01,-105.14 56.02 07/31/2016 19:30:55 74.00,-105.08 56.01 2.37 7
8 07/31/2016 20:21:39 -73.65, 63.05 124.31 07/31/2016 20:20:28 -73.73, 61.96 124.27 35.22 71
9 08/03/2016 00:13:56 74.37,-176.78 56.92 08/03/2016 00:15:06 74.27,-175.53 56.86 39.25 70
10 08/03/2016 01:04:48 -74.02, -8.60 123.40 08/03/2016 01:04:39 -74.00, -8.51 123.42 3.40 9
11 08/05/2016 05:47:50 -74.06, -79.41 122.77 08/05/2016 05:48:54 -74.05, -79.46 122.77 1.64 64
12 08/05/2016 06:38:51 74.00, 87.97 57.19 08/05/2016 06:38:20 74.01, 88.09 57.20 3.68 31




NCC Satellite Simultaneous Nadir Overpasses (SNOs) Prediction Service
